Regional Weather Roundup
Issued by NWS

Home | Current Version | Previous Version | Graphics & Text | Print | Product List | Glossary On
Versions: 1 2 3 4 5 6 7 8 9 10 11 12 13 14 15 16 17 18 19 20 21 22 23 24 25 26 27 28 29 30 31 32 33 34 35 36 37 38 39 40 41 42 43 44 45 46 47 48 49 50
000
ASUS43 KLMK 210802
RWRKY
KENTUCKY REGIONAL WEATHER ROUNDUP
NATIONAL WEATHER SERVICE LOUISVILLE KY
400 AM EDT MON APR 21 2014

NOTE "FAIR" INDICATES FEW OR NO CLOUDS BELOW 12,000 FEET
WITH NO SIGNIFICANT WEATHER AND/OR OBSTRUCTIONS TO VISIBILITY.

KYZ001>023-026-027-061>063-070>075-210900-
WESTERN AND SOUTH CENTRAL KENTUCKY

CITY           SKY/WX    TMP DP  RH WIND       PRES   REMARKS
PADUCAH        MOCLDY    56  49  77 CALM      30.05F
HENDERSON      MOCLDY    52  46  82 CALM      30.06F
OWENSBORO      PTCLDY    54  49  83 SE3       30.07F
HOPKINSVILLE   MOCLDY    54  48  82 SE1       30.08F
BOWLING GREEN  PTCLDY    50  46  86 CALM      30.10S
GLASGOW        NOT AVBL
$$

KYZ024-025-028>034-038-045-046-053-210900-
NORTH CENTRAL KENTUCKY

CITY           SKY/WX    TMP DP  RH WIND       PRES   REMARKS
LOUISVILLE/SDF PTCLDY    56  46  69 SE5       30.07S
LOUISVILLE/LOU CLEAR     52  44  74 CALM      30.08S
FORT KNOX      CLEAR     53  44  71 CALM      30.07F
$$

KYZ035>037-039>044-047>052-055>060-089>105-210900-
NORTHEAST KENTUCKY

CITY           SKY/WX    TMP DP  RH WIND       PRES   REMARKS
LEXINGTON      MOCLDY    54  43  66 S5        30.09S
COVINGTON      MOCLDY    51  42  71 CALM      30.08S
FRANKFORT      MOCLDY    48  43  82 CALM      30.08S
$$

KYZ054-064>069-076>088-106>120-210900-
SOUTHEAST KENTUCKY

CITY           SKY/WX    TMP DP  RH WIND       PRES   REMARKS
JACKSON        PTCLDY    58  31  35 CALM      30.10S
LONDON         PTCLDY    51  44  77 CALM      30.11S
SOMERSET       NOT AVBL
MIDDLESBORO    MOCLDY    47  42  84 CALM      30.14S
MONTICELLO     SUNNY     45  41  86 CALM      30.13R
$$




USA.gov is the U.S. government's official web portal to all federal, state and local government web resources and services.